Weather History for Greenwood, NS

Change the Weather History Date:

Friday, June 7, 2013

  Actual Average Record
Temperature  
Mean Temperature 59 °F -  
Max Temperature 68 °F 73 °F 84 °F (1999)
Min Temperature 50 °F 50 °F 37 °F (1997)
Degree Days  
Heating Degree Days 6    
Growing Degree Days 9 (Base 50)    
Moisture  
Dew Point 47 °F    
Average Humidity 65    
Maximum Humidity 88    
Minimum Humidity 30    
Precipitation  
Precipitation 0.08 in 0.11 in - ()
Sea Level Pressure  
Sea Level Pressure 30.18 in    
Wind  
Wind Speed 4 mph ()    
Max Wind Speed 14 mph    
Max Gust Speed -    
Visibility 15.0 miles    
Events      
Averages and records for this station are not official NWS values.
T = Trace of Precipitation, MM = Missing Value Source: Averaged Metar Reports

Daily Weather History Graph

Daily Weather History Graph

Search for Another Location

Airport:

Trip Planner

Search our weather history database for the weather conditions in past years. The results will help you decide how hot, cold, wet, or windy it might be!

Date:

Astronomy

Jun. 07, 2013 Rise Set
Actual Time 5:33 AM ADT 9:03 PM ADT
Civil Twilight 4:56 AM ADT 9:40 PM ADT
Nautical Twilight 4:08 AM ADT 10:29 PM ADT
Astronomical Twilight 3:05 AM ADT 11:32 PM ADT
Moon 4:56 AM ADT (6/7) 8:11 PM ADT (6/7)
Length of Visible Light 16h 44m
Length of Day
15h 30m
Waning Crescent, 1% of the Moon is Illuminated
Jun 7
Waning Crescent
Jun 8
New
Jun 16
First Quarter
Jun 23
Full
Jun 30
Last Quarter

Hourly Weather History & Observations

Time (ADT) Temp. Dew Point Humidity Pressure Visibility Wind Dir Wind Speed Gust Speed Precip Events Conditions
12:00 AM 55.4 °F 44.6 °F 67% 30.22 in 15.0 mi SSW 3.5 mph - N/A   Mostly Cloudy
1:00 AM 53.6 °F 46.4 °F 77% 30.22 in 15.0 mi Calm Calm - N/A   Overcast
2:00 AM 53.6 °F 44.6 °F 72% 30.22 in 15.0 mi Calm Calm - N/A   Overcast
3:00 AM 53 °F 44 °F 64% 30.22 in 15 mi SE 2.3 mph - -   Overcast
3:00 AM 53.6 °F 44.6 °F 72% 30.22 in 15.0 mi South 2.3 mph - N/A   Overcast
4:00 AM 51.8 °F 46.4 °F 82% 30.21 in 15.0 mi Calm Calm - N/A   Overcast
5:00 AM 51.8 °F 46.4 °F 82% 30.20 in 15.0 mi NNE 3.5 mph - N/A   Overcast
6:00 AM 51.8 °F 46.4 °F 82% 30.19 in 15.0 mi East 2.3 mph - N/A   Overcast
7:00 AM 51.8 °F 48.2 °F 88% 30.19 in 15.0 mi NE 2.3 mph - N/A   Overcast
8:00 AM 53.6 °F 46.4 °F 77% 30.20 in 15.0 mi Calm Calm - N/A   Overcast
9:00 AM 56 °F 49 °F 70% 30.20 in 15 mi East 3.5 mph - -   Overcast
9:00 AM 55.4 °F 48.2 °F 77% 30.19 in 15.0 mi East 3.5 mph - N/A   Overcast
10:00 AM 57.2 °F 50.0 °F 77% 30.20 in 15.0 mi ENE 3.5 mph - N/A   Overcast
11:00 AM 62.6 °F 46.4 °F 55% 30.19 in 15.0 mi SE 3.5 mph - N/A   Overcast
12:00 PM 66.2 °F 46.4 °F 49% 30.18 in 15.0 mi South 3.5 mph - N/A   Overcast
1:00 PM 66.2 °F 39.2 °F 37% 30.18 in 15.0 mi ESE 10.4 mph - N/A   Overcast
2:00 PM 64.4 °F 37.4 °F 37% 30.15 in 15.0 mi SE 13.8 mph - N/A   Overcast
3:00 PM 65 °F 41 °F 30% 30.14 in 15 mi SSE 8.1 mph - -   Overcast
3:00 PM 66.2 °F 41.0 °F 40% 30.14 in 15.0 mi SSE 8.1 mph - N/A   Overcast
4:00 PM 66.2 °F 42.8 °F 43% 30.13 in 15.0 mi SE 8.1 mph - N/A   Overcast
5:00 PM 66.2 °F 50.0 °F 56% 30.13 in 15.0 mi SE 9.2 mph - N/A   Overcast
6:00 PM 64.4 °F 50.0 °F 59% 30.14 in 15.0 mi SSE 11.5 mph - N/A   Overcast
7:00 PM 62.6 °F 51.8 °F 68% 30.14 in 15.0 mi SE 5.8 mph - N/A   Overcast
8:00 PM 60.8 °F 51.8 °F 72% 30.15 in 15.0 mi ESE 8.1 mph - N/A   Overcast
9:00 PM 60 °F 51 °F 65% 30.15 in 15 mi SE 6.9 mph - -   Overcast
9:00 PM 60.8 °F 51.8 °F 72% 30.14 in 15.0 mi SE 6.9 mph - N/A   Overcast
10:00 PM 59.0 °F 51.8 °F 77% 30.14 in 15.0 mi East 9.2 mph - N/A   Overcast
11:00 PM 57.2 °F 50.0 °F 77% 30.15 in 15.0 mi ESE 6.9 mph - N/A   Overcast